"Pseudo-MPEC" for A118s6d

Created 2024 Jul 15 13:22:05 UT using Find_Orb

Click here for an explanation of pseudo-MPECs

 
 Astrometry: 
     A118s6d* C2024 07 14.51249701 20 41.107-19 45 49.39   ~7EDM 18.79oVNEOCPT05
     A118s6d  C2024 07 14.51294901 20 40.738-19 45 40.46   ~7EDM 18.78oVNEOCPT05
     A118s6d  C2024 07 14.51340101 20 40.418-19 45 32.33   ~7EDM 18.90oVNEOCPT05
     A118s6d  C2024 07 14.51385301 20 40.001-19 45 23.29   ~7EDM 18.25oVNEOCPT05
     A118s6d  C2024 07 14.51430501 20 39.631-19 45 13.61   ~7EDM 18.31oVNEOCPT05

Station data:
(T05) ATLAS-HKO, Haleakala  (N20.707551 W156.257010)  US/Hawaii.  Observers
   L. Denneau, A. Heinze, H. Weiland, J. Tonry, H. Flewelling, A.
   Fitzsimmons, D. Young, B. Stalder. Measurers L. Denneau, A. Heinze, J.
   Tonry. 0.5-m f/2.0 Schmidt + CCD.

Orbital elements:  A118s6d
   Perihelion 2024 Jul 1.88438 +/- 55.4 TT = 21:13:30 (JD 2460493.38438)
Epoch 2024 Jul 15.0 TT = JDT 2460506.5   Earth MOID: 0.0205      AutoNEOCP
M   3.56392691 +/- 70               (J2000 ecliptic)
n   0.27173147 +/- 0.478            Peri.  338.95933 +/- 110
a   2.36071059 +/- 2.77             Node   300.58582 +/- 27
e   0.5702123 +/- 0.241             Incl.   12.70851 +/- 36
P   3.62714                H 22.58  G  0.15   U 12.2  SR
q 1.01460429 +/- 0.304    Q 3.70681688 +/- 6.78
From 5 observations 2024 July 14 (2.6 min); mean residual 0".32
Residuals in arcseconds: 
240714 T05  .14-  .18+    240714 T05  .55+  .51-    240714 T05  .14-  .46+    
240714 T05  .14-  .23+    240714 T05  .13-  .35-    

Ephemerides (geocentric):
Date (UTC) HH   RA             Dec           delta  r     elong  mag " sig PA
---- --------  ------------   ------------  ------ ------ -----  --- --------
2024 07 15 13  01 07 57.838   -14 12 39.51  .05506 1.0297 102.5 18.9  65d  79
2024 07 15 14  01 07 29.268   -13 59 41.21  .05515 1.0298 102.5 19.0  66d  79
2024 07 15 15  01 07 00.841   -13 46 45.29  .05524 1.0299 102.6 19.0  65d  78
2024 07 15 16  01 06 32.557   -13 33 51.76  .05533 1.0300 102.7 19.0  66d  79
2024 07 15 17  01 06 04.414   -13 21 00.64  .05543 1.0301 102.8 19.0  66d  79
2024 07 15 18  01 05 36.411   -13 08 11.96  .05552 1.0302 102.8 19.0  66d  79
2024 07 15 19  01 05 08.548   -12 55 25.74  .05562 1.0303 102.9 19.0  66d  79
2024 07 15 20  01 04 40.824   -12 42 41.99  .05571 1.0304 103.0 19.0  67d  78
2024 07 15 21  01 04 13.238   -12 30 00.73  .05581 1.0304 103.1 19.0  67d  78
2024 07 15 22  01 03 45.789   -12 17 21.98  .05591 1.0305 103.1 19.0  68d  77
2024 07 15 23  01 03 18.476   -12 04 45.75  .05601 1.0306 103.2 19.0  69d  77
2024 07 16 00  01 02 51.299   -11 52 12.07  .05611 1.0307 103.3 19.0  70d  77
2024 07 16 01  01 02 24.255   -11 39 40.94  .05621 1.0308 103.4 19.0  71d  77
2024 07 16 02  01 01 57.346   -11 27 12.38  .05631 1.0309 103.4 19.0  71d  77
2024 07 16 03  01 01 30.569   -11 14 46.41  .05641 1.0310 103.5 19.0  72d  77
2024 07 16 04  01 01 03.923   -11 02 23.05  .05652 1.0311 103.6 19.0  72d  78
2024 07 16 05  01 00 37.409   -10 50 02.29  .05662 1.0312 103.6 19.0  73d  78
2024 07 16 06  01 00 11.025   -10 37 44.17  .05673 1.0313 103.7 19.0  73d  78
2024 07 16 07  00 59 44.770   -10 25 28.69  .05683 1.0314 103.8 19.0  73d  78
2024 07 16 08  00 59 18.644   -10 13 15.85  .05694 1.0315 103.9 19.0  73d  78
2024 07 16 09  00 58 52.645   -10 01 05.69  .05705 1.0316 103.9 19.0  74d  79
2024 07 16 10  00 58 26.773   -09 48 58.20  .05716 1.0317 104.0 19.0  74d  79
2024 07 16 11  00 58 01.028   -09 36 53.40  .05727 1.0318 104.1 19.0  72d  78
2024 07 16 12  00 57 35.407   -09 24 51.29  .05738 1.0319 104.1 19.0  72d  78
2024 07 16 13  00 57 09.911   -09 12 51.89  .05749 1.0320 104.2 19.0  72d  78
2024 07 16 14  00 56 44.538   -09 00 55.21  .05761 1.0321 104.3 19.0  72d  78
2024 07 16 15  00 56 19.288   -08 49 01.25  .05772 1.0322 104.3 19.0  72d  78
2024 07 16 16  00 55 54.160   -08 37 10.03  .05783 1.0323 104.4 19.0  72d  78
2024 07 16 17  00 55 29.153   -08 25 21.54  .05795 1.0324 104.5 19.0  72d  78
2024 07 16 18  00 55 04.267   -08 13 35.81  .05807 1.0325 104.6 19.0  72d  79
2024 07 16 19  00 54 39.500   -08 01 52.83  .05818 1.0326 104.6 19.0  73d  79
2024 07 16 20  00 54 14.852   -07 50 12.62  .05830 1.0327 104.7 19.0  73d  79
2024 07 16 21  00 53 50.322   -07 38 35.18  .05842 1.0328 104.8 19.0  73d  79
2024 07 16 22  00 53 25.910   -07 27 00.51  .05854 1.0329 104.8 19.0  73d  79
2024 07 16 23  00 53 01.614   -07 15 28.62  .05866 1.0330 104.9 19.0  73d  79
2024 07 17 00  00 52 37.434   -07 03 59.52  .05878 1.0331 105.0 19.0  73d  79
2024 07 17 01  00 52 13.369   -06 52 33.21  .05890 1.0332 105.0 19.0  73d  79
2024 07 17 02  00 51 49.418   -06 41 09.70  .05903 1.0333 105.1 19.0  73d  79
2024 07 17 03  00 51 25.581   -06 29 48.98  .05915 1.0334 105.2 19.0  73d  79
2024 07 17 04  00 51 01.856   -06 18 31.07  .05927 1.0335 105.2 19.0  73d  79
2024 07 17 05  00 50 38.244   -06 07 15.96  .05940 1.0336 105.3 19.0  73d  80
2024 07 17 06  00 50 14.743   -05 56 03.66  .05952 1.0337 105.4 19.0  73d  80
2024 07 17 07  00 49 51.353   -05 44 54.17  .05965 1.0338 105.4 19.0  73d  80
2024 07 17 08  00 49 28.073   -05 33 47.50  .05978 1.0339 105.5 19.0  73d  80
2024 07 17 09  00 49 04.902   -05 22 43.64  .05991 1.0340 105.5 19.0  73d  80
2024 07 17 10  00 48 41.839   -05 11 42.60  .06004 1.0341 105.6 19.0  73d  80
2024 07 17 11  00 48 18.884   -05 00 44.37  .06017 1.0342 105.7 19.0  73d  80
2024 07 17 12  00 47 56.037   -04 49 48.96  .06030 1.0343 105.7 19.0  73d  80